Overview Statistics Trail Chart Weather Telemetry Raw packets
 

This is the latest recevied weather packets stored in our database for station/object KA1JKB. If no packets are shown the sender has not sent any weather packets the latest 10 day(s).

<< 67 68 69 70 71 72 73 >>
Time Temp. Humidity Pressure Rain* Wind** Luminosity Snow
1787954302 25.56° C 52% 1018.8 hPa 0 mm - 328 W/m² -
1787953998 25° C 53% 1018.5 hPa 0 mm - 356 W/m² -
1787953696 25.56° C 50% 1018.8 hPa 0 mm - 134 W/m² -
1787953392 26.67° C 48% 1018.8 hPa 0 mm - 311 W/m² -
1787953090 27.22° C 48% 1018.8 hPa 0 mm - 425 W/m² -
1787952790 27.78° C 47% 1018.8 hPa 0 mm - 452 W/m² -
1787952484 27.78° C 45% 1018.9 hPa 0 mm - 455 W/m² -
1787952182 28.33° C 45% 1018.7 hPa 0 mm - 483 W/m² -
1787951879 27.78° C 45% 1018.6 hPa 0 mm - 480 W/m² -
1787951575 26.67° C 48% 1018.7 hPa 0 mm - 473 W/m² -
1787951271 26.11° C 49% 1018.4 hPa 0 mm - 529 W/m² -
1787950967 26.11° C 48% 1018.6 hPa 0 mm - 567 W/m² -
1787950662 26.67° C 49% 1018.8 hPa 0 mm - 471 W/m² -
1787950358 27.22° C 47% 1018.7 hPa 0 mm - 481 W/m² -
1787950054 27.78° C 45% 1018.9 hPa 0 mm - 277 W/m² -
1787949749 26.67° C 50% 1018.8 hPa 0 mm - 625 W/m² -
1787949448 26.11° C 48% 1018.7 hPa 0 mm - 632 W/m² -
1787949143 25.56° C 48% 1018.7 hPa 0 mm - 588 W/m² -
1787948840 25.56° C 51% 1018.7 hPa 0 mm - 585 W/m² -
1787948540 26.11° C 49% 1018.6 hPa 0 mm - 530 W/m² -
1787948235 25.56° C 51% 1018.6 hPa 0 mm - 594 W/m² -
1787947934 26.67° C 53% 1018.6 hPa 0 mm - 491 W/m² -
1787947629 26.67° C 48% 1018.9 hPa 0 mm - 642 W/m² -
1787947328 26.67° C 49% 1018.8 hPa 0 mm - 720 W/m² -
1787947023 25.56° C 49% 1019 hPa 0 mm - 603 W/m² -

* Rain latest hour (hover to see other rain measurements)
** Current wind speed in m/s (hover to see current wind gust speed)